Regional Weather Roundup
Issued by NWS

Home | Current Version | Previous Version | Graphics & Text | Print | Product List | Glossary On
Versions: 1 2 3 4 5 6 7 8 9 10 11 12 13 14 15 16 17 18 19 20 21 22 23 24 25 26 27 28 29 30 31 32 33 34 35 36 37 38 39 40 41 42 43 44 45 46 47 48 49 50
000
ASUS43 KMPX 221901
RWRMN
WEATHER ROUNDUP FOR MINNESOTA
NATIONAL WEATHER SERVICE TWIN CITIES/CHANHASSEN MN
200 PM CDT FRI AUG 22 2014


NOTE: "FAIR" INDICATES FEW OR NO CLOUDS BELOW 12,000 FEET WITH NO
SIGNIFICANT WEATHER AND/OR OBSTRUCTIONS TO VISIBILITY. N/A MEANS
CURRENT SKY AND/OR WEATHER CONDITIONS ARE NOT AVAILABLE.

MNZ060>063-068>070-222000-
   Twin Cities Metro

CITY           SKY/WX    TMP DP  RH WIND       PRES   REMARKS
TWIN CITIES    CLOUDY    76  68  76 NW3       29.98S
ST PAUL        CLOUDY    76  68  76 NE3       29.98S
CRYSTAL        CLOUDY    76  67  73 VRB3      29.97S
BLAINE         CLOUDY    75  72  88 NW5       29.98S
LAKEVILLE      CLOUDY    75  68  78 CALM      29.98S
EDEN PRAIRIE   CLOUDY    76  69  79 CALM      29.98S
SOUTH ST PAUL  PTSUNNY   76  68  76 CALM      29.97F
LAKE ELMO      CLOUDY    73  70  88 CALM      29.99S
$$
MNZ001>005-007-008-013>017-022>024-027-028-222000-
   Northwest Minnesota

CITY           SKY/WX    TMP DP  RH WIND       PRES   REMARKS
BEMIDJI        PTSUNNY   78  64  62 CALM      29.99S
HALLOCK        PTSUNNY   70  64  83 N14       30.02S
ROSEAU         LGT RAIN  68  63  83 NE6       30.01S
WARROAD        LGT RAIN  68  64  88 NE7       30.01F
THIEF RVR FALL CLOUDY    70  66  88 N7        30.00R
CROOKSTON      CLOUDY    68  66  94 NW14      30.01S FOG
FOSSTON        PTSUNNY   73  68  83 CALM      30.00R
DETROIT LAKES  MOSUNNY   79  68  69 W9        30.01S
MOORHEAD       CLOUDY    73  72  94 N8        30.00F
PARK RAPIDS    CLOUDY    76  65  68 E6        29.99R
MAHNOMEN       MOCLDY    73  69  87 NW13      29.99R
$$
MNZ006-009>011-018-025>026-222000-
   North Central Minnesota

CITY           SKY/WX    TMP DP  RH WIND       PRES   REMARKS
BAUDETTE       PTSUNNY   75  65  70 E5        30.00S
FLAG ISLAND    CLOUDY    70  63  78 N3        30.01R
INTL FALLS     CLOUDY    74  64  71 MISG      30.00S
WASKISH        CLOUDY    75  66  73 CALM      30.00R
BIG FORK       MOSUNNY   70  61  73 CALM      30.01R
LONGVILLE      CLOUDY    75  66  73 SE3       29.99F
GRAND RAPIDS   CLOUDY    72  64  78 E6        30.01S
CRANE LAKE     CLOUDY    70  64  83 CALM      30.02F
ORR            CLOUDY    75  63  64 CALM      29.98S
COOK           CLOUDY    72  64  78 CALM      30.01S
WALKER         FAIR      76  65  69 NE3       30.00S
$$
MNZ012-019>021-037-222000-
   Northeast Minnesota

CITY           SKY/WX    TMP DP  RH WIND       PRES   REMARKS
DULUTH         CLOUDY    65  62  90 SE3       30.02R
ELY            CLOUDY    70  64  83 CALM      30.02S
HIBBING        CLOUDY    73  65  75 S3        30.01R
EVELETH        CLOUDY    72  66  83 CALM      30.03R
DULUTH HARBOR  CLOUDY    63  61  94 E9        30.02R
TWO HARBORS    CLOUDY    70  63  78 E6        29.99
SILVER BAY     MOSUNNY   66  64  94 NE5       29.99S
GRAND MARAIS     N/A     62  60  93 E6        30.00S
G MARAIS ARPRT CLOUDY    63  59  88 NE7       30.05S FOG
$$
MNZ029>031-032-039>041-046>048-054>057-064-222000-
   West Central Minnesota

CITY           SKY/WX    TMP DP  RH WIND       PRES   REMARKS
FERGUS FALLS   MOSUNNY   79  66  65 NW10      29.98R
WHEATON        PTSUNNY   77  68  73 NW5       30.00R
MORRIS         MOSUNNY   82  70  65 CALM      29.97S
ALEXANDRIA     MOSUNNY   80  66  62 CALM      30.00F
ELBOW LAKE     FAIR      79  68  70 W5        29.99S
WADENA         MOSUNNY   77  68  73 E6        29.99S
GLENWOOD       SUNNY     81  66  61 CALM      29.99F
APPLETON       MOSUNNY   84  68  58 E6        29.96F
BENSON         MOSUNNY   82  68  61 NW3       29.98R
ORTONVILLE     PTSUNNY   81  68  65 N5        29.98S
MADISON        MOSUNNY   82  72  69 CALM      29.98F
WILLMAR        FAIR      82  66  57 N5        29.99R
$$
MNZ033>034-036-042>043-049>051-058-059-222000-
   Central Minnesota

CITY           SKY/WX    TMP DP  RH WIND       PRES   REMARKS
ST CLOUD       CLOUDY    78  68  71 N3        29.98S
SAUK CENTRE    FAIR      77  67  71 N6        29.99F
PAYNESVILLE    MOSUNNY   78  67  69 N6        29.98F
AITKIN         CLOUDY    75  68  78 N3        29.99S
PINE RIVER     PTSUNNY   75  66  73 S5        30.03F
BRAINERD       CLOUDY    72  65  78 NE3       30.00F
STAPLES        PTSUNNY   73  66  78 E6        30.00F
LONG PRAIRIE   FAIR      73  66  78 N5        30.00F
LITTLE FALLS   CLOUDY    70  64  83 W3        30.01R
LITCHFIELD     CLOUDY    81  72  74 E7        29.98F
BUFFALO        CLOUDY    75  67  76 NE5       29.99S
MAPLE LAKE     CLOUDY    76  70  81 N3        30.00S
$$
MNZ037-044-045-052-053-222000-
   East Central Minnesota

CITY           SKY/WX    TMP DP  RH WIND       PRES   REMARKS
PRINCETON      CLOUDY    75  68  78 CALM      29.99S
MORA           CLOUDY    70  64  83 CALM      30.01S
CAMBRIDGE      CLOUDY    73  64  73 CALM      29.98R
RUSH CITY      CLOUDY    71  66  84 CALM      30.00R
MOOSE LAKE     CLOUDY    68  63  83 NE3       29.99S
HINCKLEY       CLOUDY    70  66  88 N5        30.00R
CLOQUET        CLOUDY    66  63  88 CALM      30.02R
MCGREGOR       CLOUDY    72  64  78 CALM      30.01S
$$
MNZ071>073-080-081-089-090-097-098-222000-
   Southwest Minnesota

CITY           SKY/WX    TMP DP  RH WIND       PRES   REMARKS
MONTEVIDEO     PTSUNNY   82  73  74 CALM      29.99R
GRANITE FALLS  MOSUNNY   81  69  67 CALM      29.99F
CANBY          MOSUNNY   77  68  73 CALM      30.00F
MARSHALL       MOSUNNY   81  70  69 N3        29.98S
REDWOOD FALLS  MOSUNNY   84  69  60 NE7       29.97F
OLIVIA         PTSUNNY   79  68  69 N3        29.98S
PIPESTONE      MOSUNNY   81  68  65 E3        30.01S
WINDOM         MOSUNNY   79  70  73 NE5       30.00S
WORTHINGTON      N/A     81  70  69 NE6       30.02
JACKSON        PTSUNNY   81  68  65 NE6       30.01R
TRACY          MOSUNNY   82  71  68 CALM      30.00S
SLAYTON        PTSUNNY   81  69  67 CALM      30.02S
$$
MNZ065>067-074>077-082>085-091>093-222000-
   South Central Minnesota

CITY           SKY/WX    TMP DP  RH WIND       PRES   REMARKS
MANKATO        MOSUNNY   81  66  61 CALM      29.98S
NEW ULM        MOSUNNY   81  70  69 CALM      29.98S
ST JAMES       MOSUNNY   86  70  58 E3        29.99S HX  90
FAIRMONT       MOSUNNY   81  68  65 E5        29.99S
GLENCOE        PTSUNNY   80  67  65 N3        29.98S
FARIBAULT      PTSUNNY   84  64  51 CALM      29.98S
OWATONNA       MOSUNNY   81  68  65 CALM      29.99S
WASECA         PTSUNNY   77  63  61 CALM      30.00S
ALBERT LEA     MOSUNNY   81  70  69 CALM      29.98S
$$
MNZ078>079-086>088-094>096-222000-
   Southeast Minnesota

CITY           SKY/WX    TMP DP  RH WIND       PRES   REMARKS
ROCHESTER      MOSUNNY   82  71  69 CALM      29.99S
RED WING       PTSUNNY   82  68  61 NW7       29.95R
STANTON        MOSUNNY   80  69  69 N5        29.96S
DODGE CENTER   PTSUNNY   79  70  73 CALM      29.99S
WINONA         MOSUNNY   84  70  61 CALM      29.94S
AUSTIN         MOSUNNY   82  72  69 CALM      29.98S
PRESTON        MOSUNNY   82  75  80 N3        29.98F
$$
ABBREVIATIONS USED IN REMARKS
   TC - TEMPERATURES IN CELSIUS
  WCI - WIND CHILL INDEX
   HX - HEAT INDEX
  VSB - VISIBILITY
$$



USA.gov is the U.S. government's official web portal to all federal, state and local government web resources and services.